Regional Weather Roundup
Issued by NWS

Home | Current Version | Previous Version | Graphics & Text | Print | Product List | Glossary On
Versions: 1 2 3 4 5 6 7 8 9 10 11 12 13 14 15 16 17 18 19 20 21 22 23 24 25 26 27 28 29 30 31 32 33 34 35 36 37 38 39 40 41 42 43 44 45 46 47 48 49 50
000
ASUS43 KIND 311659
RWRIN

WEATHER ROUNDUP FOR INDIANA
NATIONAL WEATHER SERVICE INDIANAPOLIS IN
100 PM EDT THU JUL 31 2014

NOTE: "FAIR" INDICATES FEW OR NO CLOUDS BELOW 12,000 FEET WITH NO
SIGNIFICANT WEATHER AND/OR OBSTRUCTIONS TO VISIBILITY.

* - STATION DOES NOT REPORT WEATHER SUCH AS PRECIPITATION OR FOG.

+ - STATION NOT QUALITY CONTROLLED BY THE NATIONAL WEATHER SERVICE.
    USE DATA WITH CAUTION...ESPECIALLY DEWPOINT AND RELATIVE
    HUMIDITY OBSERVATIONS.

INZ001>003-010>013-019-020-311800-
NORTHWEST INDIANA

CITY           SKY/WX    TMP DP  RH WIND       PRES   REMARKS
GARY /AIRPORT/ MOSUNNY   81  59  47 W16       30.06S
KNOX *+        SUNNY     78  56  46 W7        30.06S
MONTICELLO +   SUNNY     76  61  59 W3        30.07S
RENSSELAER +   SUNNY     77  63  61 SW6       30.09S
VALPARAISO     SUNNY     78  59  51 W13       30.07S

$$

LMZ046-743>745-311800-
SOUTHERN LAKE MICHIGAN

STATION/POSITION TIME  TEMP WIND        PRES
                       AIR  DIR/SP/G
                 (UTC) (F)  (DEG/KT/KT) (MB)
BURNS HARBOR     1600   73  270/ 10/ 12 1018.3
MICHIGAN CITY    1600   71  210/ 10/ 11   N/A

$$

INZ004-005-014>016-021>024-311800-
NORTH CENTRAL INDIANA

CITY           SKY/WX    TMP DP  RH WIND       PRES   REMARKS
GOSHEN         SUNNY     79  58  48 W8G22     30.06S
SOUTH BEND     MOSUNNY   79  58  48 W12       30.06S
WARSAW +       SUNNY     77  59  53 SW5       30.07S

$$

INZ006>009-017-018-025>027-311800-
NORTHEAST INDIANA

CITY           SKY/WX    TMP DP  RH WIND       PRES   REMARKS
ANGOLA *+      SUNNY     77  57  50 W8        30.06S
FORT WAYNE     MOSUNNY   78  57  48 W12       30.08S

$$

INZ028-029-035-036-043>045-051>053-311800-
WEST CENTRAL INDIANA

CITY           SKY/WX    TMP DP  RH WIND       PRES   REMARKS
GREENCASTLE +  MOSUNNY   77  61  57 S3        30.11S
LAFAYETTE      SUNNY     77  58  51 W10       30.08S
TERRE HAUTE    SUNNY     80  58  46 VRB5      30.10S

$$

INZ030>032-037>040-046>048-054>057-064-065-311800-
CENTRAL INDIANA

CITY           SKY/WX    TMP DP  RH WIND       PRES   REMARKS
COLUMBUS       MOSUNNY   77  59  53 CALM      30.11S
INDIANAPOLIS   MOSUNNY   78  60  53 W14       30.10S
-EAGLE CREEK   SUNNY     77  58  51 W5        30.09F
KOKOMO *+      SUNNY     79  59  50 W9        30.09S
MT COMFORT *+  MOSUNNY   77  64  65 W9        30.10F
SHELBYVILLE    MOSUNNY   80  63  55 W10       30.10S

$$

INZ033-034-041-042-049-050-058-059-311800-
EAST CENTRAL INDIANA

CITY           SKY/WX    TMP DP  RH WIND       PRES   REMARKS
MUNCIE         MOSUNNY   77  56  48 W10G17    30.09F

$$

INZ060-061-067>069-081>083-085>088-311800-
SOUTHWEST INDIANA

CITY           SKY/WX    TMP DP  RH WIND       PRES   REMARKS
EVANSVILLE     MOSUNNY   80  58  46 SW3       30.11S

$$

INZ062-063-066-070>080-084-089>092-311800-
SOUTH CENTRAL AND SOUTHEAST INDIANA

CITY           SKY/WX    TMP DP  RH WIND       PRES   REMARKS
BLOOMINGTON    PTSUNNY   78  60  53 W8        30.11S

$$




USA.gov is the U.S. government's official web portal to all federal, state and local government web resources and services.